Weather History for Marathon, FL

Change the Weather History Date:

Monday, November 19, 2012

  Actual Average Record
Temperature  
Mean Temperature 72 °F 75 °F  
Max Temperature 78 °F 80 °F 84 °F (1998)
Min Temperature 66 °F 71 °F 56 °F (2008)
Degree Days  
Heating Degree Days 0 0  
Month to date heating degree days 0 0  
Since 1 July heating degree days 0 0  
Cooling Degree Days 7 10  
Month to date cooling degree days 173 218  
Year to date cooling degree days 4931 4657  
Growing Degree Days 22 (Base 50)    
Moisture  
Dew Point 59 °F    
Average Humidity 65    
Maximum Humidity 84    
Minimum Humidity 45    
Precipitation  
Precipitation 0.00 in 0.06 in 0.11 in (2014)
Month to date precipitation 0.10 2.04  
Year to date precipitation 43.90 43.37  
Snow  
Snow 0.00 in - - ()
Month to date snowfall 0.0  
Since 1 July snowfall 0.0  
Since 1 September snowfall 0.0  
Snow Depth 0.00 in    
Sea Level Pressure  
Sea Level Pressure 30.06 in    
Wind  
Wind Speed 11 mph (NNE)    
Max Wind Speed 16 mph    
Max Gust Speed 24 mph    
Visibility 10 miles    
Events      
T = Trace of Precipitation, MM = Missing Value Source: NWS Daily Summary

Daily Weather History Graph

Daily Weather History Graph

Search for Another Location

Airport:

Trip Planner

Search our weather history database for the weather conditions in past years. The results will help you decide how hot, cold, wet, or windy it might be!

Date:

Astronomy

Nov. 19, 2012 Rise Set
Actual Time 6:43 AM EST 5:35 PM EST
Civil Twilight 6:19 AM EST 5:59 PM EST
Nautical Twilight 5:51 AM EST 6:27 PM EST
Astronomical Twilight 5:24 AM EST 6:55 PM EST
Moon 11:59 AM EST (11/19) 11:44 PM EST (11/19)
Length of Visible Light 11h 40m
Length of Day
10h 52m
Waxing Crescent, 40% of the Moon is Illuminated
Nov 19
Waxing Crescent
Nov 20
First Quarter
Nov 28
Full
Dec 6
Last Quarter
Dec 13
New

Hourly Weather History & Observations

Time (EST) Temp. Dew Point Humidity Pressure Visibility Wind Dir Wind Speed Gust Speed Precip Events Conditions
12:53 AM 71.1 °F 63.0 °F 75% 30.07 in 10.0 mi NNE 11.5 mph 19.6 mph N/A   Clear
1:53 AM 70.0 °F 63.0 °F 78% 30.07 in 10.0 mi NNE 11.5 mph - N/A   Scattered Clouds
2:05 AM 69.8 °F 62.6 °F 78% 30.07 in 10.0 mi NNE 12.7 mph - N/A   Mostly Cloudy
2:39 AM 69.8 °F 64.4 °F 83% 30.06 in 10.0 mi NNE 15.0 mph 19.6 mph N/A   Mostly Cloudy
2:53 AM 70.0 °F 64.0 °F 81% 30.06 in 10.0 mi NNE 11.5 mph - N/A   Mostly Cloudy
3:53 AM 70.0 °F 63.0 °F 78% 30.06 in 10.0 mi NNE 13.8 mph 20.7 mph N/A   Overcast
4:24 AM 69.8 °F 62.6 °F 78% 30.06 in 10.0 mi NNE 16.1 mph - N/A   Overcast
4:53 AM 69.1 °F 62.1 °F 78% 30.07 in 10.0 mi NNE 13.8 mph 21.9 mph N/A   Mostly Cloudy
5:53 AM 69.1 °F 62.1 °F 78% 30.08 in 10.0 mi NNE 11.5 mph 19.6 mph N/A   Mostly Cloudy
6:53 AM 69.1 °F 57.9 °F 68% 30.09 in 10.0 mi NNE 12.7 mph 20.7 mph N/A   Mostly Cloudy
7:53 AM 70.0 °F 57.9 °F 65% 30.10 in 10.0 mi NNE 13.8 mph - N/A   Clear
8:53 AM 71.1 °F 57.0 °F 61% 30.12 in 10.0 mi NNE 15.0 mph - N/A   Clear
9:53 AM 73.0 °F 57.0 °F 57% 30.12 in 10.0 mi NNE 12.7 mph - N/A   Clear
10:53 AM 73.9 °F 55.9 °F 53% 30.12 in 10.0 mi NNE 13.8 mph - N/A   Clear
11:53 AM 75.0 °F 57.9 °F 55% 30.10 in 10.0 mi NNE 11.5 mph - N/A   Clear
12:53 PM 77.0 °F 55.9 °F 48% 30.06 in 10.0 mi NNE 10.4 mph - N/A   Clear
1:53 PM 78.1 °F 55.9 °F 46% 30.04 in 10.0 mi Variable 6.9 mph - N/A   Clear
2:53 PM 75.9 °F 55.9 °F 50% 30.03 in 10.0 mi NNW 10.4 mph - N/A   Clear
3:53 PM 73.9 °F 57.9 °F 57% 30.02 in 10.0 mi Variable 6.9 mph - N/A   Clear
4:53 PM 73.0 °F 57.0 °F 57% 30.02 in 10.0 mi NNW 5.8 mph - N/A   Clear
5:53 PM 72.0 °F 57.0 °F 59% 30.03 in 10.0 mi NNW 9.2 mph - N/A   Clear
6:53 PM 71.1 °F 57.9 °F 63% 30.04 in 10.0 mi NW 9.2 mph - N/A   Clear
7:53 PM 72.0 °F 57.9 °F 61% 30.05 in 10.0 mi NNW 9.2 mph - N/A   Clear
8:53 PM 71.1 °F 60.1 °F 68% 30.06 in 10.0 mi NNW 6.9 mph 17.3 mph N/A   Clear
9:53 PM 68.0 °F 61.0 °F 78% 30.06 in 10.0 mi NE 10.4 mph - N/A   Clear
10:53 PM 66.0 °F 59.0 °F 78% 30.05 in 10.0 mi NNE 9.2 mph - N/A   Partly Cloudy
11:19 PM 66.2 °F 59.0 °F 78% 30.05 in 10.0 mi NNE 9.2 mph - N/A   Mostly Cloudy
11:53 PM 66.0 °F 59.0 °F 78% 30.05 in 10.0 mi NNE 8.1 mph - N/A   Mostly Cloudy